Tracking 29892 objects as of 21-Nov-2024
HD Live streaming from Space Station
objects crossing your sky now

STARLINK-3800

Track STARLINK-3800 now!
10-day predictions
STARLINK-3800 is classified as:


NORAD ID: 52379
Int'l Code: 2022-045BA
Perigee: 546.0 km
Apogee: 547.7 km
Inclination: 53.2 °
Period: 95.4 minutes
Semi major axis: 6917 km
RCS: Unknown
Launch date: April 29, 2022
Source: United States (US)
Launch site: AIR FORCE EASTERN TEST RANGE (AFETR)
Your satellite tracking list
Your tracking list is empty




NASA's NSSDC Master Catalog

Two Line Element Set (TLE):
1 52379U 22045BA  24325.92613394  .00000512  00000-0  50217-4 0  9999
2 52379  53.2154 155.9235 0001228  88.9081 271.2052 15.08843530144404
Source of the keplerian elements: AFSPC